Showing default

GLOBAL-33, 66554

Orbit data source: Space-Track

GLOBAL-33, 66554 is a payload satellite owned by BlackSky Global (US) in LEO that was launched on Thu, 20 Nov 2025 UTC via an ELECTRON launch vehicle from the Rocket Lab Launch Complex (RLLC). Payload-class satellites include a variety of spacecraft equipped with specific instruments for various scientific and technological missions. These include communications satellites like Starlink; space stations such as the ISS; scientific satellites like the Hubble; Earth observation satellites from companies like Planet Labs, Umbra, and HawkEye 360; GPS; miniature CubeSats for education and research; and military/defense satellites.

Loading next visibility...
Identifier
66554, 2025-267A
Orbit
LEO
Country
Flag of USUS
Related business
Manufacturer
LeoStella
Mission
Operational Commercial Imaging
Bus & Motor
BSKY, Unknown motor
Mass
138 kg wet, 134 kg dry
Launch date (UTC)
2025-11-20 (7 months ago)
Launch vehicle
ELECTRON
Launch site
Rocket Lab Launch Complex (RLLC)
Object type
Payload
Rocket body
Debris
Shape & HBR
Box + 2 Pan, 1.5 m
Radar Cross Section
2.545 m², Large (>1 m²)

Expand to show TLE details & history
Last TLE update: 12 hours ago

TLE from 12 hours ago
0 GLOBAL-33
1 66554U 25267A   26171.35508090  .00010339  00000-0  28800-3 0  9992
2 66554  42.0211  37.8647 0010646 279.3601  80.6034 15.36747222 32531
Epoch: 2026-06-20T08:31Z
TLE epoch observation values (Epoch: 2026-06-20T08:31:18.989Z)
Latitude
-0.00006°
Longitude
1.46462°
Altitude
454.221 km
Speed
7.643 km/s
True Right ascension
02h 31m 27s
True Declination
0° 00' 00"
Sunlit
Object was in daylight at epoch
Visualization orbit readout
Latitude
Unknown
Longitude
Unknown
Altitude
Unknown
Speed
Unknown
Apparent Right ascension
Unknown
Apparent Declination
Unknown
Sunlit
N/A
Visualization observer readout
Local Sidereal Time
07:19:14
Azimuth
Unknown
Elevation
Unknown
Doppler factor
Unknown
Orbital elements
Apogee altitude
465.131 km
Perigee altitude
450.576 km
Semi-major axis
6,835.99 km
Eccentricity
0.00106
Inclination
42.0211°
RAAN
37.8647°
Arg. of periapsis
279.3601°
True anomaly
80.72378°
Mean anomaly
80.6034°
Eccentric anomaly
80.66359°
Mean motion
3.84009 °/min
Orbital period
93.75 mins
BSTAR
0.000288
Loading maneuver chart data...
Computing Atmospheric mass density...
Loading historical data...
Loading historical data...
Loading historical data...
Loading historical data...
Loading historical data...
Loading historical data...
Loading historical data...
Other satellites on launch #267 in the year 2025 (2025-11-20 UTC)

Documentation

Showing up to 5 results
|